Regional Weather Roundup
Issued by NWS Upton, NY

Home | Current Version | Previous Version | Text Only | Print | Product List | Glossary On
Versions: 1 2 3 4 5 6 7 8 9 10 11 12 13 14 15 16 17 18 19 20 21 22 23 24 25 26 27 28
000
ASUS41 KOKX 140908
RWROKX

REGIONAL WEATHER ROUNDUP
NATIONAL WEATHER SERVICE NEW YORK NY
400 AM EST THU DEC 14 2017

NOTE: "FAIR" INDICATES FEW OR NO CLOUDS BELOW 12,000 FEET WITH NO
SIGNIFICANT WEATHER AND/OR OBSTRUCTIONS TO VISIBILITY.

NYZ071-072-176-178-NJZ106-104-141000-
NEW YORK CITY METRO AREA

CITY           SKY/WX    TMP DP  RH WIND       PRES   REMARKS
Central Park   CLOUDY    26  23  88 SE5       29.57F WCI  20
Bronx Bot Gard   N/A     25  23  93 N2        29.56F
Bronx Lehman C NOT AVBL
LaGuardia APRT CLOUDY    25  21  85 E6        29.56F WCI  18
Queens College NOT AVBL
Kennedy INTL   FLURRIES  24  23  96 NE7       29.57F WCI  16
Breezy Point     N/A    N/A N/A N/A SW1         N/A
Brooklyn Coll  NOT AVBL
Staten Island  NOT AVBL
Newark/Liberty CLOUDY    25  22  88 N7        29.55F WCI  17
Teterboro      CLOUDY    24  20  84 NE3       29.56F
$$

NYZ177-179-078>081-141000-
LONG ISLAND NEW YORK

CITY           SKY/WX    TMP DP  RH WIND       PRES   REMARKS
Jones Beach      N/A    N/A N/A N/A NE10        N/A
Wantagh        NOT AVBL
Matinecock PT    N/A    N/A N/A N/A SE2         N/A
Farmingdale    LGT SNOW  23  21  92 NE6       29.57F FOG     WCI  16
MacArthur/ISP  LGT SNOW  24  22  91 NE6       29.56F FOG     WCI  17
Shirley        LGT SNOW  24  22  91 N3        29.59F FOG
Mt Sinai Harb    N/A    N/A N/A N/A CALM        N/A
Westhampton    LGT SNOW  24  19  81 N5        29.60F WCI  18
East Hampton   LGT SNOW  24  22  92 CALM      29.59F
Southold       NOT AVBL
Montauk          N/A     29  25  85 W6        29.61F WCI  23
$$

NYZ052-065-067-141000-
HUDSON VALLEY

CITY           SKY/WX    TMP DP  RH WIND       PRES   REMARKS
White Plains   FLURRIES  22  19  89 NE3       29.54F
Larchmont Harb   N/A    N/A N/A N/A N7          N/A
Croton On Huds   N/A    N/A N/A N/A E1          N/A
Somers         NOT AVBL
Brewster       NOT AVBL
Newburgh       LGT SNOW  19  19 100 CALM      29.55  FOG
Montgomery     LGT SNOW  21  18  88 CALM      29.54F FOG
Otisville      NOT AVBL
Warwick        NOT AVBL
Suffern        NOT AVBL
Poughkeepsie   LGT SNOW  21  17  84 CALM      29.57F FOG
Albany         LGT SNOW  18  10  71 CALM      29.59S
$$

NJZ001-105-106-008-010-013-015-019>022-104-141000-
NEW JERSEY

CITY           SKY/WX    TMP DP  RH WIND       PRES   REMARKS
Newark/Liberty CLOUDY    25  22  88 N7        29.55F WCI  17
Teterboro      CLOUDY    24  20  84 NE3       29.56F
Caldwell       CLOUDY    22  20  92 E6        29.56F WCI  14
Somerville     CLOUDY    23  21  92 CALM      29.52F
Linden         CLOUDY    26  23  89 CALM      29.55F
Perth Amboy      N/A    N/A N/A N/A NE3         N/A
Sussex         LGT SNOW  21  18  88 NE3       29.52F FOG
Andover        NOT AVBL
Trenton        CLOUDY    25  23  92 E5        29.51F WCI  19
Millville      CLOUDY    35  29  78 SW8       29.53F WCI  29
Atlantic City  CLOUDY    36  27  69 SW13      29.53F WCI  27
Wrightstown    CLOUDY    25  23  93 CALM      29.50F
Toms River     CLOUDY    24  23  96 CALM      29.53F
Belmar         CLOUDY    24  22  91 CALM      29.53F
$$

PAZ047>061-062-071-141000-
EASTERN PENNSYLVANIA

CITY           SKY/WX    TMP DP  RH WIND       PRES   REMARKS
Philadelphia   CLOUDY    30  27  88 CALM      29.53F
Allentown      LGT SNOW  23  19  85 E6        29.51F FOG     WCI  16
Scranton       LGT SNOW  20  18  92 NE5       29.47F FOG     WCI  13
$$

CTZ002-004>006-009-010-012-RIZ004-006-007-MAZ004-011-015-141000-
SOUTHERN NEW ENGLAND
 IN CT

CITY           SKY/WX    TMP DP  RH WIND       PRES   REMARKS
Bradley INTL   LGT SNOW  20  17  88 CALM      29.60S FOG
Hartford       LGT SNOW  22  16  78 CALM      29.61F
Danbury        LGT SNOW  22  18  85 E3        29.57F FOG
Wtrbury/Oxford LGT SNOW  19  18  93 CALM      29.55F FOG
Norwalk Harbor   N/A    N/A N/A N/A N7          N/A
Bridgeport     LGT SNOW  24  19  81 N6        29.59F WCI  17
Meriden        LGT SNOW  21  18  88 CALM      29.60S FOG
New Haven      FLURRIES  24  18  77 N5        29.60F WCI  18
Chester        LGT SNOW  21  19  93 CALM      29.57F
Groton         LGT SNOW  23  19  85 N3        29.60F FOG
Wilimantic     LGT SNOW  22  17  81 SW3       29.60F

 IN RI

CITY           SKY/WX    TMP DP  RH WIND       PRES   REMARKS
Providence     NOT AVBL
Block Island   LGT SNOW  27  24  89 NW5       29.61S FOG     WCI  22
Westerly       LGT SNOW  24  20  84 NW5       29.61F FOG     WCI  18
 IN MA

CITY           SKY/WX    TMP DP  RH WIND       PRES   REMARKS
Boston         CLOUDY    23   8  52 W15G22    29.59F WCI  10
Worcester      CLOUDY    16   4  59 SW9       29.52F WCI   4
Westfield      FLURRIES  20  11  68 CALM      29.58F
Provincetown   CLOUDY    26  13  57 W16G26    29.61F WCI  14
Nantucket      LGT SNOW  27  20  75 W14       29.62F WCI  16
$$

ANZ330-335-338-340-345-350-353-355-141000-
COASTAL MARINE OBSERVATIONS


STATION/POSITION TIME  SKY/WX   TEMP    WIND        PRES    VSBY  WAVE
                                AIR SEA DIR/SP/G                  HT/PER
                 (UTC)          (F)     (DEG/KT/KT) (MB)    (MI)  (FT/S)
NY HARB ENTRANCE 0750            34 52  220/ 14/ 17 1001.6          2/ 4
20 S FIRE ISLAND 0750            35 51  230/ 16/ 21 1002.3          5/ 6
GREAT SOUTH BAY  0830            25 45   20/  4/  6   N/A
HUDSON CANYON    0750            41 56  230/ 19/ 25 1002.7          7/ 6
KINGS POINT      0830            23 43  120/  3/  4 1002.5
EXECUTION ROCKS  0830            25     150/  2/  4   N/A
WESTERN LI SOUND NOT AVBL
CENTRAL LI SOUND 0815            27     310/  8/ 12   N/A           4
ROBBINS REEF     0830            27     120/  6/  7 1002.0
$$


>>>>>>>>>>>>>>>>>>>>>>>>>>>> KEY <<<<<<<<<<<<<<<<<<<<<<<<<<<
>                                                          <
>     SKY/WX - Sky Condition/Present Weather               <
>     TMP    - Temperature in Fahrenheit                   <
>     DP     - Dew Point in Fahrenheit                     <
>     RH     - Relative Humidity in Percent                <
>     WIND   - Direction (from) and Speed in MPH           <
>     PRES   - Mean Sea Level Pressure (inches of Hg)      <
>     WCI    - Wind Chill Index                            <
>     VSB    - VISIBILITY IN MILES                         <
>     HX     - HEAT INDEX                                  <
>     TC     - TEMPERATURE IN CELSIUS                      <
>     VRB    - VARIABLE WIND DIRECTION                     <
>                                                          <
>>>>>>>>>>>>>>>>>>>>>>>>>>>> KEY <<<<<<<<<<<<<<<<<<<<<<<<<<<




USA.gov is the U.S. government's official web portal to all federal, state and local government web resources and services.